OBJECT E

Satellite information

Favourite Embed

Satellite Type and Status

UNKNOWNIN ORBIT

Key statistics

Satellite OBJECT E at a glance.

Uptime

1578

Days in orbit

Revolutions

≈ 15.5

Per day

Orbit

SSO

Sun Synchronous Orbit

Inclination

97.3

Latest

Satellite identification and parameters

Extended collection of information and parameters for OBJECT E.

Object identification

Identified? True

Debris? False

Object name: OBJECT E

International designator: 2021-061E

Object number (NORAD): 49007

Object ID (CCSDS): 49007

Country: PEOPLES REPUBLIC OF CHINA (PRC)

Current information (Y/N): Y

RCS size: MEDIUM

Orbital parameters

Period: 92.775 minutes

Inclination: 97.3234 deg

SMA: 6788.59 km

Apoapsis: 413.649 km

Periapsis: 407.262 km

RAAN: 8.0931 deg

Eccentricy: 0.00047044

Argument of periapsis: 183.6736 deg

Mean anomaly: 176.4483 deg

Mean motion: 15.52148793 rev/day

Mean motion (dot): 0.00058787 rev/day2

B* drag term: 0.00096754435 1/REarth

Two-line elements (TLE)

Creation date: Oct. 28, 2025, 2:18 a.m.

Reference frame: TEME

Reference center: EARTH

Epoch: Oct. 27, 2025, 11:16 p.m. UTC

TLE line 0: 0 OBJECT E

TLE line 1: 1 49007U 21061E 25300.96957549 .00058787 00000-0 96754-3 0 9993

TLE line 2: 2 49007 97.3234 8.0931 0004704 183.6736 176.4483 15.52148793239798

Live tracking on map

Real-time ground track for satellite OBJECT E.

In-orbit conjunctions

There are no conjunctions computed for OBJECT E, at the moment. Check back to stay up to date, as we update our databases every day.

Go to all conjunctions

Associated space launch

Jilin-1 satellites are a series of Chinese commercial remote sensing satellite for high definition video within the Jilin-1 constellation designed and owned by the Chang Guang Satellite Technology Corporation.

OBJECT E was lifted into orbit during the mission ‘Long March 2D | Jilin-1 Wideband-01B & High Resolution 03D’, on board a Long March 2D space rocket.

The launch took place on July 3, 2021, 2:51 a.m. from Launch Complex 9.

For more information about the launch, click the button.

Launch to space Long March 2D | Jilin-1 Wideband-01B & High Resolution 03D
Long March 2D | Jilin-1 Wideband-01B & High Resolution 03D

Agency: N/A

Status: Launch Successful

Launch date: July 3, 2021, 2:51 a.m. UTC

Rocket: Long March 2D

Launch pad: Launch Complex 9

Location: Taiyuan Satellite Launch Center, People's Republic of China

...

Latest news about this satellite

News about space launch
China Launches Five Satellites on a Chang Zheng 2D

At 02:51 UTC, or 10:51 AM Beijing time on Saturday, July 3, the China Aerospace Science and Technology Corporation (CASC) successfully launched a Chang Zheng 2D rocket from LC-9 at the Taiyuan Satellite Launch Center, carrying five satellites into Sun Syn...

News about space launch
China launches five Earth observation satellites on Long March 2D rocket

China successfully launched five small remote sensing satellites on top of a Long March 2D rocket Saturday into an orbit more than 330 miles above Earth.


Newsletter sign-up

Weekly statistics, charts and insights to help you stay on top of the space industry.